Jackson, MI

12:45 PM EST on November 22, 2019 (GMT -0500)
Jackson County-Reynolds

Weather History for KJXN - October, 2019

Change the Weather History Date:

Monday, October 21, 2019

  Actual Average Record
Temperature  
Mean Temperature 55 °F 49 °F  
Max Temperature 62 °F 59 °F 83 °F (1953)
Min Temperature 48 °F 39 °F 19 °F (1974)
Degree Days  
Heating Degree Days 10 16  
Month to date heating degree days 246 281  
Since 1 July heating degree days 302 469  
Cooling Degree Days 0 0  
Month to date cooling degree days 13 3  
Year to date cooling degree days 663 589  
Growing Degree Days 5 (Base 50)    
Moisture  
Dew Point 52 °F    
Average Humidity 83    
Maximum Humidity 93    
Minimum Humidity 66    
Precipitation  
Precipitation 0.30 in 0.07 in 0.71 in (1981)
Month to date precipitation 1.89 1.85  
Year to date precipitation 28.88 26.25  
Sea Level Pressure  
Sea Level Pressure 29.75 in    
Wind  
Wind Speed 9 mph ()    
Max Wind Speed 25 mph    
Max Gust Speed 38 mph    
Visibility 8.5 miles    
Events Rain    
T = Trace of Precipitation, MM = Missing Value Source: Averaged Metar Reports

Daily Weather History Graph

Daily Weather History Graph

Search for Another Location

Airport or City:

Astronomy

Oct. 21, 2019 Rise Set
Actual Time 7:57 AM EDT 6:46 PM EDT
Civil Twilight 7:28 AM EDT 7:15 PM EDT
Nautical Twilight 6:56 AM EDT 7:48 PM EDT
Astronomical Twilight 6:23 AM EDT 8:20 PM EDT
Moon No Moon Rise 3:18 PM EDT (10/21)
Length of Visible Light 11h 46m
Length of Day
10h 49m
Waning Gibbous, 48% of the Moon is Illuminated
Oct 21
Waning Gibbous
Oct 27
New
Nov 4
First Quarter
Nov 12
Full
Nov 19
Last Quarter

Hourly Weather History & Observations

Time (EDT) Temp. Dew Point Humidity Pressure Visibility Wind Dir Wind Speed Gust Speed Precip Events Conditions
12:56 AM 50.0 °F 46.9 °F 89% 29.96 in 10.0 mi NE 3.5 mph - N/A   Mostly Cloudy
1:56 AM 48.9 °F 46.0 °F 90% 29.95 in 9.0 mi ENE 5.8 mph - N/A   Mostly Cloudy
2:56 AM 54.0 °F 46.9 °F 77% 29.94 in 10.0 mi East 6.9 mph - N/A   Overcast
3:56 AM 54.0 °F 46.0 °F 75% 29.92 in 10.0 mi East 8.1 mph - N/A   Overcast
4:56 AM 55.0 °F 44.1 °F 67% 29.93 in 10.0 mi East 6.9 mph - N/A   Overcast
5:56 AM 54.0 °F 44.1 °F 69% 29.93 in 10.0 mi East 6.9 mph - N/A   Overcast
6:56 AM 54.0 °F 46.0 °F 75% 29.91 in 10.0 mi East 9.2 mph - N/A   Overcast
7:56 AM 54.0 °F 46.9 °F 77% 29.86 in 10.0 mi East 11.5 mph - N/A   Overcast
8:56 AM 55.0 °F 48.0 °F 77% 29.86 in 8.0 mi East 12.7 mph 19.6 mph N/A   Overcast
9:56 AM 55.9 °F 50.0 °F 80% 29.86 in 7.0 mi ESE 11.5 mph 21.9 mph N/A   Overcast
10:56 AM 57.9 °F 52.0 °F 81% 29.81 in 8.0 mi ESE 12.7 mph 19.6 mph N/A   Overcast
11:56 AM 60.1 °F 53.1 °F 78% 29.79 in 10.0 mi ESE 13.8 mph 24.2 mph N/A   Overcast
12:56 PM 60.1 °F 54.0 °F 80% 29.75 in 10.0 mi ESE 17.3 mph 24.2 mph N/A   Overcast
1:56 PM 59.0 °F 55.0 °F 87% 29.70 in 7.0 mi ESE 16.1 mph 33.4 mph 0.03 in Rain Light Rain
2:56 PM 59.0 °F 55.0 °F 87% 29.68 in 6.0 mi ESE 10.4 mph 24.2 mph 0.04 in Rain Light Rain
3:56 PM 57.9 °F 55.0 °F 90% 29.65 in 5.0 mi SE 10.4 mph - 0.03 in Rain Light Rain
4:15 PM 59.0 °F 55.0 °F 87% 29.64 in 10.0 mi SE 16.1 mph 25.3 mph 0.00 in Rain Light Rain
4:54 PM 59.0 °F 55.4 °F 88% 29.64 in 10.0 mi SE 15.0 mph 21.9 mph 0.01 in   Overcast
4:56 PM 59.0 °F 55.0 °F 87% 29.64 in 10.0 mi SE 11.5 mph 21.9 mph 0.01 in   Overcast
5:56 PM 61.0 °F 55.9 °F 83% 29.62 in 10.0 mi SE 11.5 mph 26.5 mph N/A   Overcast
6:56 PM 61.0 °F 57.0 °F 87% 29.60 in 10.0 mi SE 9.2 mph - N/A   Overcast
7:36 PM 61.0 °F 57.9 °F 90% 29.61 in 2.5 mi SSE 13.8 mph 24.2 mph 0.06 in Rain Heavy Rain
7:43 PM 62.1 °F 57.9 °F 86% 29.61 in 3.0 mi SSE 13.8 mph - 0.10 in Rain Rain
7:56 PM 61.0 °F 59.0 °F 93% 29.60 in 6.0 mi SE 8.1 mph - 0.12 in Rain Light Rain
8:40 PM 62.1 °F 57.9 °F 86% 29.61 in 9.0 mi SSE 16.1 mph 29.9 mph 0.06 in Rain Light Rain
8:56 PM 62.1 °F 57.9 °F 86% 29.61 in 10.0 mi South 15.0 mph - 0.07 in Rain Light Rain
9:56 PM 60.1 °F 57.0 °F 90% 29.61 in 10.0 mi South 12.7 mph - 0.00 in   Overcast